Вернуться в каталог

STARLINK-36654

АктивенСвязьVLEO
NORAD 67838·PAYLOAD·🇺🇸 United States

Запущен Feb 16, 2026 с Vandenberg Space Force Base

Loading…

Ближайшие Пролёты (ближайшие 24 часа)

TLE

СвежийSource: CelesTrak SupGP

Эпоха: Sep 15, 2026, 03:49 UTC

1 67838C 26033T   26258.15951389 -.00018532  00000+0 -67102-3 0  2587
2 67838  43.0027 277.1634 0001704 273.4358 296.7219 15.27597747    15

Отслеживайте STARLINK-36654 в реальном времени с AllMySat

Download on the App Store